Reflectivity
-20 -20 -20 -20 -20 -20 -20 -20 -20 -20 -20 -20 -20 -20 -20 -20 -20 -20 -20 -20 -20 -20 -20 -20 -20 -20 -20 -20 -20 -20 -20 -20 -20 -20 -20 -20 -20 -20 -20 -20 -20 -20 -20 -20
-20 -20 -20 -20 -20 -20 -20 -20 -20 -20 -20 -20 -20 -20 -20 -20 -20 -20 -20 -20 -20 -20 -20 -20 -20 -20 -20 -20 -20 -20 -20 -20 -20 -20 -20 -20 -20 -20 -20 -20 -20 -20 -20 -20
-20 -20 -20 -20 -20 -20 -20 -20 -20 -20 -20 -20 -20 -20 -20 -20 -20 -20 -20 -20 -20 -20 -17 -13 -20 -20 -20 -20 -20 -20 -20 -20 -20 -20 -20 -20 -20 -20 -20 -20 -20 -20 -20 -20
-20 -20 -20 -20 -20 -20 -20 -20 -20 -20 -20 -20 -20 -20 -20 -20 -20 -20 -20 -20 -20 -20 -20 -20 5 -19 -20 -20 -20 -20 -20 -20 -20 -20 -20 -20 -20 -20 -20 -20 -20 -20 -20 -20
-20 -20 -20 -20 -20 -20 -20 -20 -20 -20 -20 -20 -20 -20 -20 -20 -20 -20 -20 -20 -20 -11 -20 -17 -2 -20 -20 -20 -20 -20 -20 -20 -20 -20 -20 -20 -20 -20 -20 -20 -20 -20 -20 -20
-20 -20 -20 -20 -20 -20 -20 -20 -20 -20 24 -9 -20 -20 -20 -20 -20 -20 -20 -20 -20 -20 -20 -13 -4 -20 21 11 -20 -20 -20 -20 -20 -20 -20 -20 -20 -20 -20 -20 -20 -20 -20 -20
-20 -20 -20 -20 -20 -20 -20 -20 -20 -7 -19 -20 -20 -20 -20 -20 -20 -20 -20 -20 -20 -20 -20 -20 -20 -20 -20 -17 17 -20 -20 -20 -20 -20 -20 -20 -20 -20 -20 -20 -20 -20 -20 -20
-20 -20 -20 -20 -20 -20 -20 -20 -20 -20 -20 -20 -20 -20 -20 -20 -20 -20 -20 -20 -20 -20 -20 -20 -20 -20 -20 -20 5 -20 -20 -20 -20 -20 -20 -20 -20 -20 -20 -20 -20 -20 -20 -20
-20 -20 -20 -20 -20 -20 -20 -20 -20 -20 -20 -20 -20 -20 -20 -20 -20 -20 -20 -20 -20 -20 -20 -20 -2 -20 -20 -20 3 9 -18 -20 -20 -20 -20 -20 -20 -20 -20 -20 -20 -20 -20 -20
-20 -20 -20 -20 -20 -20 -20 -20 -20 -20 -20 -20 -20 -20 -20 -20 -20 -20 -20 -20 -20 -20 -20 -20 -20 -20 -20 -20 -20 -20 31 -20 -20 -20 -20 -20 -20 -20 -20 -20 -20 -20 -20 -20
-20 -20 -20 -20 -20 -20 -20 -20 -20 -20 -20 -20 -20 -20 -20 -20 -20 -20 -20 -20 -20 -20 -20 -20 -20 -20 -17 11 -8 -15 30 1 -20 -20 -17 -20 -20 -20 -20 -20 -20 -20 -20 -20
-20 -20 -20 -20 -20 -20 -20 -20 -20 -20 -20 -20 -20 -20 -20 -20 -20 -20 -20 -20 -20 -20 -20 -20 -20 -20 -20 -20 -20 -20 -1 20 34 32 -20 -20 -20 -20 -20 -20 -20 -20 -20 -20
-20 -20 -20 -20 -20 -20 -20 -20 -20 -20 -20 -20 -20 -20 -20 -20 -20 -20 -20 -20 -20 -20 -20 -20 -20 -20 -20 -20 -20 -20 -10 19 -16 -20 10 5 -16 -20 -20 -20 -20 -20 -20 -20
-20 -20 -20 -20 -20 -20 -20 -20 -20 -20 -20 -20 -20 -20 -20 -20 -20 -20 -20 -20 -20 -20 -20 -20 -20 -20 -20 -20 -20 -20 -20 12 -17 -20 17 -10 -13 -20 -20 -20 -20 -20 -20 -20
-20 -20 -20 -20 -20 -20 -20 -20 -20 -20 -20 -20 -20 -20 -20 -20 -20 -20 -20 -20 -20 -20 -20 -20 -20 -20 -20 -20 -20 -20 -20 -20 -17 -20 -1 -0 32 22 -7 -20 -20 -20 -20 -20
-20 -20 -20 -20 -20 -20 -20 -20 -20 -20 -20 -20 -20 -20 -20 -20 -20 -20 -20 -20 -20 -20 -20 -20 -20 -20 -20 -20 -20 -20 -20 -20 -20 -20 -20 -20 -16 -3 22 -7 -20 -20 -20 -20
-20 -20 -20 -20 -20 -20 -20 -20 -20 -20 -20 -20 -20 -20 -20 -20 -20 -20 -20 -20 -20 -20 -20 -20 -20 -20 -20 -20 -20 -20 -20 -20 -20 -20 -14 -1 -19 -12 -14 -5 19 -10 -20 -20
-20 -20 -20 -20 -20 -20 -20 -20 -20 -20 -20 -20 -20 -20 -20 -20 -20 -20 -20 -20 -20 -20 -20 -20 -20 -20 -20 -20 -20 -20 -20 -20 -20 -20 2 16 13 -6 -20 21 -19 -20 -20 -20
-20 -20 -20 -20 -20 -20 -20 -20 -20 -20 -20 -20 -20 -20 -20 -20 -20 -20 -20 -20 -20 -20 -20 -20 -20 -20 -20 -20 -20 -20 -20 -20 -20 -20 -17 -14 9 10 -4 19 31 2 -8 -19
-20 -11 -20 -20 -20 -20 -20 -20 -20 -20 -20 -20 -20 -20 -20 -20 -20 -20 -20 -20 -20 -20 -20 -20 -20 -20 -20 -18 -19 -9 -20 -20 -20 -20 -20 -18 -2 -1 4 -19 -2 14 35 16
-20 -7 -13 -20 -20 -20 -20 -20 -20 -20 -20 -20 -20 -20 -20 -20 -20 -20 -20 -20 -20 -20 -20 2 -20 -20 -12 -20 -20 -20 -20 -20 -4 -10 11 -19 -0 -20 -16 16 21 17 23 20
-15 -20 -17 -13 -20 -20 -20 -20 -20 -20 -20 -20 -20 -20 -20 -20 -20 -20 -20 -20 -20 -19 -20 -20 -20 -20 5 -20 -20 -20 -20 -20 -20 -19 -20 -12 -1 -7 -20 -19 24 40 -7 -4
-0 -20 -20 -20 -20 -20 -20 -20 -20 -20 -20 -20 -20 -20 -20 -20 -20 -20 -19 -20 -20 -20 -20 -5 2 -19 -12 -7 -20 -10 -20 -20 -20 -20 -20 2 25 27 22 -7 9 -1 -11 12
-8 -20 -20 -20 -20 -20 -20 -20 -20 -20 -20 -20 -20 -20 -20 -20 -8 -19 -20 -9 -20 -20 -18 -20 -14 -20 -20 2 -5 -20 -20 -20 -20 -20 -17 -8 5 28 28 23 32 22 20 20
-6 -13 -20 -20 -20 -20 -20 -20 -20 -20 -20 -20 -20 -20 -20 -20 -20 -20 -20 -20 -20 -17 -16 -20 -20 -20 -19 15 6 -20 -20 -20 -20 -16 -14 -10 10 28 35 38 28 27 28 38
-3 -20 -20 -15 -20 -20 -20 -20 -20 -20 -20 -20 -20 -20 -20 -20 -20 -20 -20 -20 -20 -20 -20 -11 -18 -20 -10 5 -0 5 -20 -18 8 13 8 -9 11 26 36 36 30 35 30 37
Wind_Speed
3 4 6 8 3 3 4 3 5 3 8 6 7 3 7 7 5 7 7 10 10 14 14 15 14 12 10 9 9 9 8 6 5 2 3 2 2 2 2 3 3 4 3 4
6 5 7 4 3 3 2 2 5 3 6 4 3 8 7 9 11 13 12 9 7 8 10 12 13 13 13 13 11 9 10 7 6 4 3 3 3 2 2 2 3 4 4 4
7 5 7 6 4 4 3 5 4 4 4 3 2 7 5 5 4 8 8 7 7 10 13 12 14 14 13 13 14 13 12 10 8 6 3 3 3 2 2 1 3 4 5 5
5 4 5 5 5 8 3 8 6 7 6 3 3 6 5 3 8 9 11 12 11 9 9 11 14 14 15 15 11 11 11 10 8 7 5 5 5 4 4 4 3 3 5 5
8 3 4 4 8 8 10 1 5 4 5 5 1 2 8 1 4 8 11 12 11 11 11 13 17 18 16 13 13 11 10 9 9 10 9 5 4 3 2 3 4 4 3 4
6 2 6 8 3 8 5 6 9 6 4 3 4 5 8 3 3 4 5 13 14 12 11 13 14 13 13 11 9 10 10 10 10 11 10 10 9 6 4 3 3 3 3 3
4 5 3 4 5 4 6 6 4 4 3 6 2 5 10 5 4 7 10 10 14 14 13 15 13 12 12 14 14 11 11 11 11 12 11 10 9 7 8 7 5 5 3 3
6 6 6 4 6 8 4 6 8 6 5 5 4 5 6 3 5 3 3 3 9 11 10 14 15 13 13 15 13 12 12 12 12 13 13 10 8 6 6 7 5 5 5 5
6 5 4 4 4 9 4 2 4 9 4 4 3 6 6 4 3 3 4 5 8 9 9 13 12 14 12 13 14 13 7 10 9 12 10 9 9 7 7 7 5 4 5 5
6 1 1 2 5 6 5 7 4 4 5 3 4 4 5 3 4 5 6 5 1 6 8 8 11 12 12 9 7 11 11 11 9 9 9 9 9 8 8 6 7 6 6 6
6 4 3 1 2 8 2 1 7 6 4 7 3 7 7 7 4 1 2 2 4 6 7 7 6 6 7 6 12 15 15 14 10 12 12 11 9 8 6 8 8 7 5 6
6 6 4 0 4 2 4 5 6 7 4 1 3 7 3 6 4 2 3 0 2 2 7 8 9 10 12 13 12 13 9 14 16 12 9 9 5 6 9 9 8 7 7 5
10 1 4 6 7 3 6 3 5 5 4 6 7 7 1 3 3 3 2 1 0 2 1 1 3 5 8 12 14 14 11 8 10 9 10 9 9 8 11 11 9 8 8 7
9 5 8 9 9 4 5 3 5 5 4 6 7 4 5 5 6 6 5 1 1 3 4 2 1 2 2 3 5 9 12 9 12 11 12 12 9 10 12 11 9 9 9 9
5 5 3 2 4 3 4 5 7 6 5 6 5 8 8 7 7 6 5 3 3 2 2 4 4 4 3 3 3 3 3 5 10 13 13 16 14 12 10 11 10 10 10 11
3 3 3 2 1 3 3 2 6 4 4 2 5 5 4 4 4 5 6 3 3 2 3 4 5 6 6 5 4 4 4 2 3 8 13 13 9 10 12 10 10 13 12 12
5 8 4 2 2 3 3 6 5 3 4 8 5 8 3 4 7 4 5 5 5 5 3 4 3 4 4 6 6 6 5 5 3 6 9 11 10 13 16 14 12 12 13 11
8 6 4 4 2 3 7 4 4 5 3 3 2 4 5 6 3 4 5 6 6 6 5 4 2 2 3 2 3 4 4 3 4 7 9 11 12 16 16 13 13 12 10 12
2 8 5 7 4 4 1 5 6 6 7 5 5 6 3 3 2 6 7 6 3 4 4 4 3 2 2 2 3 4 4 5 5 8 10 10 12 15 15 14 13 10 9 7
5 6 7 4 6 6 9 4 4 4 4 9 7 7 6 5 1 6 3 3 4 6 4 4 2 1 3 4 5 5 5 5 7 10 12 12 13 10 15 14 12 9 5 7
4 3 7 3 3 6 6 4 4 5 10 6 9 5 7 6 3 3 4 4 4 3 4 2 2 2 3 4 4 3 5 6 8 10 13 17 16 14 11 10 10 9 7 8
8 8 4 4 5 4 8 5 8 9 2 5 5 4 5 5 4 5 4 4 4 4 3 3 1 2 2 4 2 3 5 7 8 11 13 9 6 6 7 9 6 10 11 11
3 8 10 9 9 5 7 3 4 4 4 3 5 4 6 5 5 6 4 4 2 2 1 1 2 2 0 3 1 2 3 5 9 10 12 12 10 6 8 9 7 9 10 10
1 3 6 5 3 3 3 2 4 3 3 3 3 5 5 5 7 7 5 5 4 2 2 2 2 2 2 2 2 2 0 3 7 10 12 10 10 11 8 8 7 5 8 9
3 4 8 0 2 1 4 3 6 6 6 6 5 4 5 10 8 6 5 4 3 2 0 2 3 3 2 2 2 2 3 1 8 6 8 8 8 10 9 8 8 8 6 4
2 6 4 6 9 5 4 8 8 8 6 6 6 6 4 5 7 6 5 3 4 4 1 4 3 3 4 3 4 1 4 3 7 6 5 7 6 7 8 8 11 23 20 18
Wind_Direction
24 92 197 214 169 175 154 199 236 247 174 143 219 187 211 196 200 197 207 210 198 199 205 197 189 183 173 171 167 186 173 191 160 162 152 159 197 181 232 216 195 214 202 168
25 247 218 143 177 206 194 280 262 290 144 138 181 246 196 192 211 202 200 221 211 190 177 188 185 179 182 181 180 179 191 175 191 185 168 155 160 169 158 183 212 224 203 199
161 232 101 149 169 189 213 197 229 198 118 15 52 310 176 214 239 194 207 193 200 184 187 180 183 185 181 186 185 183 187 185 187 195 128 94 89 86 103 196 209 215 193 208
224 253 222 172 196 158 237 203 227 166 137 187 118 274 298 211 216 204 198 198 198 183 195 176 185 186 191 193 187 178 185 183 189 168 193 171 177 164 192 188 187 192 190 206
244 210 203 209 205 168 228 143 188 123 102 103 346 66 268 169 245 229 213 203 198 192 184 184 191 195 194 180 186 188 175 185 181 188 192 195 183 182 165 147 178 196 209 217
236 236 174 212 174 181 126 84 50 55 69 4 221 147 287 259 205 289 219 200 193 187 186 188 203 196 191 182 178 182 180 190 185 187 194 196 200 191 169 166 194 205 202 214
313 241 248 172 98 72 82 62 28 23 24 214 10 92 245 295 270 238 253 215 196 182 178 188 190 191 186 189 186 180 179 198 193 194 199 203 205 194 195 187 187 174 189 203
170 315 173 189 168 170 160 153 148 176 182 233 82 224 249 243 298 334 327 201 157 176 173 184 190 189 195 191 186 188 192 196 191 197 204 205 203 203 209 201 187 193 195 202
148 267 285 204 150 136 175 153 170 101 10 69 252 290 319 355 14 46 84 123 161 177 174 180 191 196 193 188 194 186 194 216 197 204 203 204 204 194 204 216 193 194 199 198
206 168 201 290 102 39 140 152 81 12 131 201 294 278 236 297 331 48 14 49 202 175 186 183 191 198 198 188 170 169 201 205 212 204 204 206 207 209 208 204 215 205 209 192
148 122 278 135 147 163 79 46 53 110 109 152 167 256 215 207 218 29 116 354 293 205 192 196 198 190 186 185 181 194 202 207 193 199 202 200 200 200 209 212 213 221 207 197
187 143 141 135 321 271 123 144 130 123 225 74 148 265 217 222 263 280 108 113 314 191 177 173 179 174 181 190 191 217 205 196 195 226 192 198 188 199 206 219 219 204 220 214
188 355 64 7 359 356 91 112 103 103 92 190 138 259 322 258 243 263 249 271 270 131 184 335 155 182 183 190 201 216 214 202 190 190 197 193 193 197 221 222 217 209 208 214
97 112 151 181 200 158 128 140 120 122 119 170 218 233 220 203 200 222 238 268 308 234 202 197 236 245 237 238 217 217 220 201 180 175 199 215 197 206 217 220 217 212 212 215
113 117 131 94 121 137 143 166 172 177 169 150 234 201 236 206 186 209 221 257 224 256 33 33 26 15 10 346 309 287 272 207 195 198 203 216 211 224 218 212 200 214 214 217
5 138 133 89 195 177 198 182 193 169 141 104 131 245 203 198 165 196 208 215 250 252 68 27 32 35 31 30 20 354 332 301 183 201 218 228 212 199 214 208 213 205 209 212
99 130 90 223 16 113 343 210 200 158 170 147 163 223 162 224 241 215 196 205 220 223 144 118 94 64 32 3 2 12 354 337 287 241 229 226 209 213 226 224 219 213 205 204
120 94 85 154 79 199 238 295 224 152 170 204 198 206 207 219 249 267 218 202 212 192 169 146 108 47 15 349 5 336 344 332 285 267 259 249 218 214 223 210 212 211 208 199
82 125 96 132 169 281 316 186 146 165 244 203 213 234 211 77 48 287 217 215 191 161 155 151 151 222 307 321 345 342 355 343 324 307 280 248 228 218 217 207 197 194 190 193
72 62 111 136 132 188 232 232 129 96 278 216 191 207 157 128 140 254 266 149 111 121 146 162 131 295 316 338 338 336 353 323 312 300 289 279 242 217 217 207 200 175 191 178
106 24 125 127 145 282 241 166 136 118 236 192 185 183 145 192 195 305 94 79 114 124 127 132 158 263 288 296 327 325 342 333 320 314 298 269 246 213 196 203 192 167 148 130
158 133 153 96 92 250 153 93 158 210 219 171 176 169 170 143 153 133 134 135 149 167 165 171 212 262 326 311 1 352 12 322 342 341 336 328 197 166 158 163 150 138 129 128
157 166 166 166 202 238 201 160 176 141 129 157 165 152 155 149 169 154 148 143 159 221 226 159 235 255 290 299 262 102 327 341 19 357 2 18 39 59 109 113 124 124 125 136
73 141 106 110 219 193 214 115 75 121 113 140 125 137 145 139 124 126 141 160 157 145 168 154 181 185 196 243 137 175 48 43 45 16 12 11 42 40 43 84 87 103 132 135
206 125 129 0 308 316 253 180 126 108 105 111 103 129 143 144 145 152 148 133 122 99 249 146 149 136 134 118 116 174 113 56 72 46 23 30 36 50 53 46 51 66 60 67
200 159 153 197 194 156 210 146 133 129 139 147 130 134 132 150 150 137 125 137 127 126 126 86 85 99 115 114 107 105 96 61 92 68 42 27 39 48 52 58 62 39 60 59